Weather History for Paris / Le Bourget, France

Change the Weather History Date:

Monday, January 20, 2014

  Actual Average Record
Temperature  
Mean Temperature 42 °F -  
Max Temperature 46 °F 45 °F - ()
Min Temperature 39 °F 35 °F - ()
Degree Days  
Heating Degree Days 22    
Moisture  
Dew Point 39 °F    
Average Humidity 83    
Maximum Humidity 93    
Minimum Humidity 70    
Precipitation  
Precipitation 0.00 in 0.06 in - ()
Sea Level Pressure  
Sea Level Pressure 29.74 in    
Wind  
Wind Speed 3 mph ()    
Max Wind Speed 7 mph    
Max Gust Speed -    
Visibility 7.2 miles    
Events      
T = Trace of Precipitation, MM = Missing Value Source: Averaged Metar Reports

Daily Weather History Graph

Daily Weather History Graph

Search for Another Location

Airport:

Trip Planner

Search our weather history database for the weather conditions in past years. The results will help you decide how hot, cold, wet, or windy it might be!

Date:

Astronomy

Jan. 20, 2014 Rise Set
Actual Time 8:34 AM CET 5:28 PM CET
Civil Twilight 7:59 AM CET 6:03 PM CET
Nautical Twilight 7:20 AM CET 6:42 PM CET
Astronomical Twilight 6:42 AM CET 7:20 PM CET
Moon 10:15 PM CET (1/20) 10:02 AM CET (1/20)
Length of Visible Light 10h 04m
Length of Day
8h 53m
Waning Gibbous, 84% of the Moon is Illuminated
Jan 20
Waning Gibbous
Jan 24
Last Quarter
Jan 30
New
Feb 6
First Quarter
Feb 15
Full

Hourly Weather History & Observations

Time (CET) Temp. Windchill Dew Point Humidity Pressure Visibility Wind Dir Wind Speed Gust Speed Precip Events Conditions
12:00 AM 40 °F - 38 °F 89% 29.61 in 6 mi Calm Calm - -   Clear
12:00 AM 39.2 °F - 37.4 °F 93% 29.59 in 5.6 mi Calm Calm - N/A   Overcast
12:30 AM 41.0 °F - 39.2 °F 93% 29.59 in 6.2 mi Calm Calm - N/A   Unknown
1:00 AM 41 °F - 39 °F 90% 29.61 in 11 mi North 2.3 mph - -   Clear
1:00 AM 41.0 °F - 39.2 °F 93% 29.59 in 6.2 mi North 2.3 mph - N/A   Overcast
1:30 AM 41.0 °F - 39.2 °F 93% 29.59 in 6.2 mi NNW 2.3 mph - N/A   Overcast
2:00 AM 42 °F - 39 °F 87% 29.62 in 12 mi North 3.5 mph - -   Clear
2:00 AM 42.8 °F 41.1 °F 39.2 °F 87% 29.59 in 6.2 mi North 3.5 mph - N/A   Overcast
2:30 AM 42.8 °F 40.1 °F 39.2 °F 87% 29.59 in 6.2 mi North 4.6 mph - N/A   Overcast
3:00 AM 42 °F - 40 °F 88% 29.63 in 12 mi North 3.5 mph - -   Clear
3:00 AM 42.8 °F 41.1 °F 39.2 °F 87% 29.62 in 6.2 mi North 3.5 mph - N/A   Overcast
3:30 AM 42.8 °F 41.1 °F 39.2 °F 87% 29.62 in 6.2 mi North 3.5 mph - N/A   Overcast
4:00 AM 42 °F - 40 °F 88% 29.64 in 12 mi NNW 4.6 mph - -   Clear
4:00 AM 42.8 °F 40.1 °F 39.2 °F 87% 29.62 in 6.2 mi NNW 4.6 mph - N/A   Overcast
4:30 AM 42.8 °F 41.1 °F 39.2 °F 87% 29.62 in 6.2 mi NNW 3.5 mph - N/A   Overcast
5:00 AM 42 °F - 38 °F 82% 29.65 in 19 mi North 4.6 mph - -   Clear
5:00 AM 42.8 °F 40.1 °F 39.2 °F 87% 29.62 in 6.2 mi North 4.6 mph - N/A   Mostly Cloudy
5:30 AM 41.0 °F 39.0 °F 37.4 °F 87% 29.62 in 6.2 mi North 3.5 mph - N/A   Overcast
6:00 AM 42 °F - 38 °F 81% 29.66 in 28 mi NNW 3.5 mph - -   Clear
6:00 AM 41.0 °F 39.0 °F 37.4 °F 87% 29.65 in 6.2 mi NNW 3.5 mph - N/A   Overcast
6:30 AM 42.8 °F 41.1 °F 37.4 °F 81% 29.65 in 6.2 mi Variable 3.5 mph - N/A   Overcast
7:00 AM 42 °F - 38 °F 79% 29.69 in 31 mi NW 3.5 mph - -   Clear
7:00 AM 42.8 °F 41.1 °F 37.4 °F 81% 29.68 in 6.2 mi Variable 3.5 mph - N/A   Overcast
7:30 AM 41.0 °F 39.0 °F 37.4 °F 87% 29.68 in 6.2 mi Variable 3.5 mph - N/A   Overcast
8:00 AM 42 °F - 37 °F 78% 29.70 in 28 mi NW 3.5 mph - -   Clear
8:00 AM 42.8 °F 41.1 °F 37.4 °F 81% 29.68 in 6.2 mi NW 3.5 mph - N/A   Overcast
8:30 AM 41.0 °F 39.0 °F 37.4 °F 87% 29.68 in 6.2 mi Variable 3.5 mph - N/A   Overcast
9:00 AM 41 °F - 37 °F 82% 29.72 in 31 mi NNW 3.5 mph - -   Clear
9:00 AM 41.0 °F 39.0 °F 37.4 °F 87% 29.71 in 6.2 mi NNW 3.5 mph - N/A   Overcast
9:30 AM 42.8 °F 41.1 °F 37.4 °F 81% 29.71 in 6.2 mi NW 3.5 mph - N/A   Overcast
10:00 AM 42 °F - 37 °F 78% 29.74 in 25 mi NW 3.5 mph - -   Clear
10:00 AM 42.8 °F 41.1 °F 37.4 °F 81% 29.71 in 6.2 mi Variable 3.5 mph - N/A   Overcast
10:30 AM 42.8 °F - 37.4 °F 81% 29.74 in 6.2 mi Variable 2.3 mph - N/A   Overcast
11:00 AM 44 °F - 38 °F 73% 29.76 in 28 mi NW 1.2 mph - -   Clear
11:00 AM 42.8 °F - 37.4 °F 81% 29.74 in 6.2 mi Calm Calm - N/A   Overcast
11:30 AM 44.6 °F 42.2 °F 37.4 °F 76% 29.74 in 6.2 mi NNW 4.6 mph - N/A   Mostly Cloudy
12:00 PM 45 °F - 38 °F 70% 29.77 in 34 mi WNW 4.6 mph - -   Clear
12:00 PM 44.6 °F 42.2 °F 39.2 °F 81% 29.74 in 6.2 mi WNW 4.6 mph - N/A   Mostly Cloudy
12:30 PM 46.4 °F 44.3 °F 39.2 °F 76% 29.74 in 6.2 mi NNW 4.6 mph - N/A   Overcast
1:00 PM 45 °F - 40 °F 75% 29.78 in 11 mi NW 6.9 mph - -   Clear
1:00 PM 44.6 °F 40.7 °F 39.2 °F 81% 29.77 in 6.2 mi NW 6.9 mph - N/A   Overcast
1:30 PM 44.6 °F 42.2 °F 39.2 °F 81% 29.77 in 6.2 mi NW 4.6 mph - N/A   Overcast
2:00 PM 45 °F - 40 °F 75% 29.79 in 25 mi WNW 3.5 mph - -   Clear
2:00 PM 44.6 °F 43.1 °F 39.2 °F 81% 29.77 in 6.2 mi WNW 3.5 mph - N/A   Mostly Cloudy
2:30 PM 44.6 °F 40.7 °F 41.0 °F 87% 29.77 in 6.2 mi West 6.9 mph - N/A   Unknown
3:00 PM 45 °F - 41 °F 79% 29.80 in 12 mi West 6.9 mph - -   Clear
3:00 PM 44.6 °F 40.7 °F 41.0 °F 87% 29.77 in 6.2 mi West 6.9 mph - N/A   Overcast
3:30 PM 46.4 °F 44.3 °F 41.0 °F 81% 29.80 in 6.2 mi West 4.6 mph - N/A   Overcast
4:00 PM 46 °F - 40 °F 74% 29.82 in 12 mi West 5.8 mph - -   Clear
4:00 PM 46.4 °F 43.5 °F 41.0 °F 81% 29.80 in 6.2 mi West 5.8 mph - N/A   Mostly Cloudy
4:30 PM 46.4 °F 44.3 °F 39.2 °F 76% 29.80 in 6.2 mi West 4.6 mph - N/A   Mostly Cloudy
5:00 PM 46 °F - 40 °F 72% 29.83 in 25 mi WNW 4.6 mph - -   Clear
5:00 PM 46.4 °F 44.3 °F 39.2 °F 76% 29.80 in 6.2 mi WNW 4.6 mph - N/A   Overcast
5:30 PM 46.4 °F 42.9 °F 41.0 °F 81% 29.83 in 6.2 mi WNW 6.9 mph - N/A   Overcast
6:00 PM 45 °F - 40 °F 78% 29.85 in 11 mi WNW 5.8 mph - -   Clear
6:00 PM 44.6 °F 41.4 °F 41.0 °F 87% 29.83 in 6.2 mi WNW 5.8 mph - N/A   Unknown
6:30 PM 44.6 °F 42.2 °F 39.2 °F 81% 29.83 in 6.2 mi WNW 4.6 mph - N/A   Unknown
7:00 PM 44 °F - 39 °F 78% 29.86 in 16 mi WNW 4.6 mph - -   Clear
7:00 PM 44.6 °F 42.2 °F 39.2 °F 81% 29.86 in 6.2 mi WNW 4.6 mph - N/A   Unknown
7:30 PM 44.6 °F 42.2 °F 39.2 °F 81% 29.86 in 6.2 mi WNW 4.6 mph - N/A   Unknown
8:00 PM 44 °F - 39 °F 78% 29.87 in 12 mi WNW 5.8 mph - -   Clear
8:00 PM 44.6 °F 41.4 °F 39.2 °F 81% 29.86 in 6.2 mi WNW 5.8 mph - N/A   Unknown
8:30 PM 44.6 °F 42.2 °F 39.2 °F 81% 29.86 in 6.2 mi WNW 4.6 mph - N/A   Unknown
9:00 PM 43 °F - 39 °F 81% 29.89 in 9 mi WNW 3.5 mph - -   Clear
9:00 PM 42.8 °F 41.1 °F 39.2 °F 87% 29.86 in 6.2 mi WNW 3.5 mph - N/A   Unknown
9:30 PM 42.8 °F - 39.2 °F 87% 29.89 in 6.2 mi Calm Calm - N/A   Unknown
10:00 PM 41 °F - 38 °F 87% 29.91 in 6 mi WSW 2.3 mph - -   Clear
10:00 PM 41.0 °F - 39.2 °F 93% 29.89 in 5.6 mi WSW 2.3 mph - N/A   Unknown
10:30 PM 41.0 °F 39.0 °F 37.4 °F 87% 29.89 in 4.3 mi West 3.5 mph - N/A   Unknown
11:00 PM 39 °F - 38 °F 92% 29.91 in 3 mi West 4.6 mph - -   Clear
11:00 PM 39.2 °F 35.9 °F 37.4 °F 93% 29.89 in 4.3 mi West 4.6 mph - N/A   Unknown
11:30 PM 39.2 °F 35.0 °F 37.4 °F 93% 29.89 in 3.7 mi West 5.8 mph - N/A   Unknown